Temperature
17 17 17 18 18 18 20 22 23 23 23 23 23 23 22 21 20 18 16 16 16 16 16 16 16 16 16 16 16 16 16 16 16 16 16 16 16 16 16 15 15 15 15 15 15 15 15 15 15
17 17 17 18 18 19 20 22 22 22 22 22 22 22 22 20 18 17 16 16 16 16 16 16 16 16 16 16 16 16 16 16 16 16 15 15 15 15 15 15 15 15 15 15 15 15 15 15 15
16 16 17 18 19 19 21 21 21 21 22 22 22 21 21 19 17 16 16 16 16 16 16 16 16 16 16 16 16 16 16 16 15 15 15 15 15 15 15 15 15 15 15 15 15 15 15 15 15
16 16 18 18 18 20 20 20 21 21 21 21 21 20 18 17 17 16 16 16 16 16 16 16 16 16 16 16 15 15 15 15 15 15 15 15 15 15 15 15 15 15 15 15 15 15 15 15 14
15 17 17 17 18 20 20 20 21 20 20 20 20 19 17 16 16 16 16 15 15 15 16 16 16 16 15 15 15 15 15 15 15 15 15 15 15 15 15 15 15 14 14 14 14 15 15 14 14
16 18 17 17 19 19 20 20 20 20 20 20 19 19 16 16 16 15 15 15 15 15 15 15 15 15 15 15 15 15 15 15 15 15 15 15 15 15 14 14 14 14 14 14 14 14 14 14 14
16 16 17 18 18 19 19 19 19 19 19 19 18 18 16 15 15 15 15 15 15 15 15 15 15 15 15 15 15 15 15 15 15 15 15 15 14 14 14 14 14 14 14 14 14 14 14 14 14
14 15 17 17 18 18 18 18 17 17 17 17 17 17 15 14 15 14 14 14 14 14 14 15 15 14 14 14 14 14 14 14 14 14 14 14 14 14 14 14 14 14 14 14 14 14 14 14 14
14 14 15 16 17 16 17 17 16 16 16 16 16 15 15 14 14 14 14 14 14 14 14 14 14 14 14 14 14 14 14 14 14 14 14 14 14 14 14 14 14 14 14 14 13 13 13 13 13
14 13 15 15 16 15 15 15 15 15 15 15 15 14 14 14 14 13 14 14 13 13 13 14 14 14 14 14 14 14 14 14 14 14 14 14 14 14 14 13 13 13 13 13 13 13 13 13 13
14 13 14 15 14 14 14 14 14 14 14 14 14 14 13 13 13 13 13 13 13 13 13 13 13 13 13 13 13 13 13 13 13 13 13 13 13 13 13 13 13 13 13 13 13 13 12 13 12
13 13 13 13 13 13 13 13 13 14 14 14 13 13 13 13 13 13 12 13 13 13 13 13 13 13 13 13 13 13 13 13 13 13 13 13 13 13 13 13 13 13 13 13 12 12 12 12 12
12 12 12 12 12 12 12 12 12 13 13 13 13 13 13 13 12 12 12 12 12 12 12 13 13 13 13 13 13 13 13 13 13 13 13 13 13 13 13 12 12 12 12 12 12 12 12 12 12
12 12 12 12 12 12 12 12 12 12 12 13 13 13 13 12 12 12 12 11 12 12 12 12 12 12 12 12 12 12 12 12 12 12 12 12 12 12 12 12 12 12 12 12 12 12 11 11 11
11 11 11 12 12 12 11 11 12 12 12 12 12 12 12 12 12 12 11 11 11 12 12 12 12 12 12 12 12 12 12 12 12 12 12 12 12 12 12 12 12 12 12 12 11 11 11 11 11
11 11 10 12 12 12 11 10 12 12 12 12 12 12 12 12 12 11 11 11 11 11 11 11 11 11 11 12 12 12 12 12 12 12 12 12 12 12 12 12 11 11 11 11 11 11 11 11 11
10 10 10 11 12 11 10 10 11 12 12 12 12 12 11 11 11 11 11 11 10 11 11 11 11 11 11 11 11 11 11 11 11 11 11 11 11 11 11 11 11 11 11 11 11 11 11 11 10
9 10 10 10 11 11 10 10 11 12 12 12 11 11 11 11 11 11 11 10 10 10 10 11 11 11 11 11 11 11 11 11 11 11 11 11 11 11 11 11 11 11 11 10 10 10 10 10 10
10 10 10 10 10 10 10 10 10 11 11 11 11 11 11 11 11 10 10 10 10 10 10 10 10 10 10 10 10 10 10 10 10 10 11 11 11 11 10 10 10 10 10 10 10 10 10 10 9
9 9 9 9 10 10 9 9 10 10 11 11 11 11 11 11 10 10 10 10 9 9 9 9 10 10 10 10 10 10 10 10 10 10 10 10 10 10 10 10 10 10 10 10 10 9 9 9 9
9 8 8 8 8 9 8 9 10 10 11 11 11 11 11 10 10 10 9 9 9 9 9 9 9 9 9 9 9 9 9 9 9 9 9 10 10 10 10 10 10 10 10 9 9 9 9 9 9
8 9 9 8 7 7 8 7 9 10 10 10 10 10 10 10 10 9 9 9 9 8 9 9 9 9 9 9 9 9 9 8 9 9 9 9 9 9 9 9 9 9 9 9 9 9 9 9 9
7 8 8 8 7 6 8 7 8 10 10 9 10 10 10 10 9 9 9 9 8 8 8 8 8 8 8 8 8 8 8 8 8 8 8 9 9 9 9 9 9 9 9 9 9 9 9 9 8
8 7 7 7 7 6 7 7 8 9 9 9 10 10 9 9 9 9 8 8 8 8 8 8 8 8 8 8 8 8 8 8 8 8 8 8 8 8 8 8 9 9 9 9 9 9 9 8 8
7 6 6 6 6 7 8 8 8 9 10 10 9 9 9 9 8 8 8 8 8 7 7 7 7 7 7 7 8 8 8 8 8 8 8 8 8 8 8 8 8 8 8 8 8 8 8 8 8
6 7 6 6 6 7 7 7 8 9 10 10 9 9 9 8 8 7 7 7 7 7 7 7 7 7 7 7 7 7 7 7 7 7 7 7 7 8 8 8 8 8 8 8 8 8 8 8 8
7 6 7 6 5 5 7 8 8 9 9 9 8 8 8 7 7 7 7 7 7 6 6 6 6 7 7 7 7 7 7 7 7 7 7 7 7 7 7 7 7 7 7 7 7 7 7 7 7
7 7 5 5 5 6 8 8 8 8 8 8 8 7 7 7 6 6 6 6 6 6 6 6 6 6 6 6 6 6 6 6 6 6 6 6 6 6 6 7 7 7 7 7 7 7 7 7 7
5 5 5 5 5 5 6 7 9 7 7 7 7 7 6 6 6 6 6 6 6 6 6 6 6 6 6 6 6 6 6 6 6 6 6 6 6 6 6 6 6 6 6 6 6 6 6 6 6
5 6 5 4 4 5 5 6 8 7 7 7 7 7 6 6 5 5 5 5 5 5 5 5 5 5 5 5 5 5 6 6 6 6 6 5 5 5 5 6 6 6 6 6 6 6 6 6 6
Wind_Speed
16 15 7 3 3 5 8 4 2 0 1 2 4 4 4 5 5 6 4 5 7 7 8 9 9 8 9 9 10 10 10 10 10 10 10 9 9 9 9 10 10 10 10 11 11 11 11 12 11
13 9 4 3 4 7 7 5 2 1 1 2 2 2 2 5 7 7 4 5 7 9 9 8 9 9 9 9 10 10 9 9 10 9 9 9 9 9 9 10 10 10 10 11 11 11 10 10 10
10 8 3 3 5 7 3 1 3 2 3 1 1 2 3 4 5 4 4 5 7 9 9 9 9 9 9 9 9 9 9 9 9 9 9 9 9 9 9 9 10 10 10 10 10 10 10 9 9
5 3 3 5 10 7 3 1 3 2 0 1 1 2 3 5 4 5 6 5 7 8 9 10 9 9 9 9 9 9 8 8 8 8 8 8 8 8 9 9 10 9 9 9 9 9 9 8 7
4 4 4 7 10 6 2 1 2 1 1 0 1 1 3 5 8 7 5 4 6 7 9 10 9 8 8 9 8 8 8 7 8 8 8 8 8 8 9 9 9 9 9 8 8 8 7 7 7
3 4 5 9 8 6 3 2 2 3 1 0 1 0 3 5 7 5 4 4 5 7 8 9 8 8 8 8 8 7 7 7 7 8 8 8 8 8 8 9 8 8 8 8 7 7 7 6 5
3 3 6 8 7 5 2 2 2 3 2 2 2 1 3 4 4 3 3 3 4 6 7 7 7 7 8 7 7 7 7 7 6 7 8 8 8 8 8 8 8 8 7 7 7 6 6 5 4
4 3 6 7 8 5 1 2 4 4 3 4 3 1 2 2 2 2 2 2 4 5 5 5 5 6 6 6 6 7 6 6 6 7 8 8 8 8 8 8 8 7 7 7 6 6 5 5 3
3 3 6 4 4 2 2 2 3 4 2 2 3 3 2 4 2 2 1 2 3 4 4 4 4 4 4 5 5 6 6 6 6 7 8 7 6 7 8 8 8 7 7 6 6 5 4 4 3
2 4 4 3 4 3 3 3 3 3 2 3 2 3 3 3 1 1 2 2 2 3 3 3 3 3 3 3 4 4 4 5 5 5 6 5 5 6 7 8 8 7 7 6 5 5 4 3 3
2 3 3 4 6 5 5 5 4 4 4 3 3 2 0 1 1 1 2 2 2 2 2 3 2 3 3 2 2 2 2 3 4 5 5 4 4 5 6 6 6 6 6 5 4 4 4 3 2
3 3 4 4 5 5 5 5 6 6 6 5 5 3 3 4 3 3 2 2 1 1 2 2 2 2 2 2 2 2 1 1 2 4 4 4 3 3 4 4 4 4 3 3 3 3 3 2 2
5 5 4 4 5 5 6 7 7 8 7 6 6 5 5 6 4 3 3 2 2 2 2 2 2 3 3 3 2 2 1 1 1 3 4 3 3 3 3 3 4 4 4 3 2 2 1 1 1
2 4 5 5 6 6 7 7 6 7 6 7 7 7 6 6 5 4 3 3 3 2 3 2 3 2 2 2 2 2 2 2 2 2 2 3 3 3 3 3 3 3 3 3 2 1 1 0 0
4 5 6 6 5 3 4 8 8 6 6 7 7 6 6 6 5 5 4 3 2 2 2 2 2 2 2 3 3 2 2 2 2 2 3 3 3 3 3 3 3 2 3 3 2 1 1 0 0
5 5 4 4 4 3 4 9 5 3 6 8 7 6 5 5 5 4 3 2 2 2 2 2 2 2 2 3 2 1 2 1 1 3 3 3 3 4 3 2 2 3 3 3 2 1 1 1 1
4 4 5 3 3 3 6 9 5 4 7 8 7 6 6 6 5 3 3 2 2 3 3 2 2 2 2 3 2 1 1 1 1 2 2 3 4 4 3 2 2 3 2 2 2 1 1 1 0
3 5 5 5 3 5 9 11 9 6 8 8 7 6 5 5 5 4 3 2 2 2 2 2 2 3 2 2 2 2 2 2 1 1 2 3 3 4 3 3 3 3 3 2 2 1 1 1 1
6 6 8 7 5 6 9 12 10 8 9 8 6 6 5 5 5 4 2 2 1 2 3 3 3 3 3 3 3 3 3 2 2 2 3 3 3 3 4 3 3 3 3 3 3 2 2 1 1
7 8 8 6 5 7 10 13 10 9 8 5 5 5 5 4 4 4 2 2 2 3 4 4 4 3 4 4 4 3 3 2 3 2 2 4 4 3 4 4 4 4 3 4 4 2 2 1 1
7 7 7 7 8 7 8 9 6 5 5 5 5 5 4 5 5 4 3 2 2 2 3 4 3 4 4 4 4 3 2 1 2 3 3 3 4 4 4 4 4 4 4 4 5 5 4 3 2
6 4 6 7 6 5 3 6 6 5 5 5 5 5 4 3 4 3 3 3 2 3 3 3 3 3 4 5 4 5 4 4 4 4 4 3 3 4 4 4 4 4 4 4 5 4 4 4 3
4 5 7 8 7 7 6 6 6 4 5 5 4 4 4 2 3 3 3 3 3 3 3 3 3 3 3 4 5 6 5 4 3 3 4 3 3 3 3 3 3 4 4 4 4 4 4 4 4
5 6 6 5 3 6 6 6 6 4 5 4 4 3 3 2 2 2 2 2 3 3 3 3 3 3 3 4 5 5 5 4 4 4 4 4 3 3 3 3 3 3 4 4 4 4 5 4 4
3 2 1 1 2 6 3 4 6 3 3 3 2 3 2 1 2 3 3 3 3 3 3 3 3 3 3 4 5 5 5 5 6 5 5 4 3 3 4 3 3 3 3 4 4 4 4 5 4
4 3 2 3 4 4 3 6 5 3 1 1 1 2 2 2 2 3 3 3 3 4 4 3 3 4 4 5 5 4 4 4 4 4 4 5 4 4 4 4 3 4 4 4 3 3 4 4 5
3 3 2 2 4 5 6 5 3 2 2 2 3 3 3 3 3 4 4 3 3 3 4 4 4 4 4 4 4 4 4 4 4 4 4 4 3 4 4 4 4 4 4 5 5 4 4 4 4
4 2 1 2 2 5 6 6 4 3 4 4 4 3 5 3 4 5 4 3 2 2 3 4 4 4 3 3 4 3 4 4 4 3 4 4 4 4 5 5 5 4 4 5 5 3 4 4 4
4 4 3 3 3 3 5 5 1 2 2 3 4 5 6 5 5 5 4 3 3 3 3 3 3 3 3 3 3 3 4 3 3 3 4 4 4 5 6 5 5 5 5 5 5 5 4 5 4
4 5 5 4 5 4 5 7 1 1 2 4 5 5 5 5 5 5 4 3 3 3 3 2 2 2 3 2 3 3 3 3 3 3 4 4 5 5 5 5 5 5 5 5 5 6 5 5 5
Wind_Direction
309 290 268 256 241 233 240 247 240 155 358 5 2 360 15 20 30 102 129 91 91 102 105 117 113 114 115 112 112 112 112 114 114 112 110 108 106 103 105 106 105 102 98 97 94 91 90 88 86
299 289 266 240 239 237 234 220 229 8 73 35 13 360 42 65 74 99 100 87 98 101 99 107 113 113 115 116 113 115 116 117 119 117 116 114 112 108 104 102 105 104 100 99 97 95 93 92 91
285 270 253 234 236 240 245 81 92 44 48 58 70 17 19 61 81 96 92 98 100 100 98 101 107 114 114 118 117 116 119 121 125 125 123 120 118 112 107 104 101 103 104 102 101 99 97 97 95
280 247 241 243 245 253 277 353 67 80 120 42 42 79 72 54 67 89 97 100 104 103 101 103 105 113 119 120 120 118 121 125 131 131 129 125 121 115 111 106 103 102 107 108 105 103 102 101 100
249 243 224 235 243 253 281 330 334 263 241 119 13 75 76 78 79 90 98 95 103 102 101 110 104 107 119 124 124 122 123 129 136 138 136 130 126 119 116 111 107 106 105 109 109 109 108 106 104
252 246 233 235 237 238 244 319 308 286 266 112 15 302 117 91 77 77 93 89 96 104 105 115 110 106 108 121 128 129 127 129 138 143 140 136 131 127 123 118 114 112 108 105 110 111 111 108 109
273 248 247 251 251 247 240 330 305 298 307 26 347 326 128 81 72 74 87 91 92 100 112 117 119 119 116 115 128 133 135 131 138 146 146 142 137 136 132 125 120 117 114 111 108 112 114 117 118
302 283 255 250 248 255 342 350 359 333 336 357 347 337 129 100 71 81 89 99 107 105 115 122 122 123 128 122 131 141 143 140 142 148 148 145 143 143 139 132 126 124 122 119 115 114 122 125 135
288 257 247 261 268 287 353 332 339 334 325 320 341 338 41 92 80 92 108 111 114 117 121 122 121 113 119 131 135 146 148 149 146 147 150 146 143 142 144 134 132 133 131 130 129 126 130 143 165
242 238 249 314 335 341 328 320 328 304 280 276 333 356 77 97 115 169 170 156 139 141 136 134 133 122 113 122 130 140 155 153 146 146 153 157 151 148 140 137 136 136 139 144 148 150 150 160 187
239 247 288 321 345 342 318 309 301 286 270 274 286 292 309 203 150 260 241 189 171 153 146 139 132 123 122 117 130 118 134 162 166 164 166 164 140 129 124 127 136 138 143 143 151 169 190 181 160
246 262 285 300 327 320 305 299 289 271 277 303 295 254 240 244 220 223 259 262 187 150 162 160 146 134 133 113 120 114 99 156 160 171 177 154 136 137 142 140 150 152 162 155 171 202 205 178 181
234 250 267 287 297 291 284 273 277 271 279 282 271 247 227 235 241 238 248 260 221 203 204 184 172 166 157 146 164 149 132 146 146 166 178 148 144 156 149 155 154 168 167 166 204 198 194 184 196
266 264 259 262 271 276 276 273 266 261 268 265 257 237 231 229 234 242 245 256 242 217 215 200 186 176 163 167 175 174 163 156 145 158 182 163 161 159 162 162 163 171 161 178 198 188 173 158 26
254 256 250 233 236 256 281 266 238 251 273 269 262 248 241 233 225 232 238 251 259 247 228 210 190 160 189 187 191 178 164 155 159 172 189 183 167 165 166 166 170 174 170 184 196 180 130 103 307
234 242 248 214 224 239 262 263 248 251 260 263 264 258 253 244 230 226 220 235 239 258 241 219 216 184 206 200 198 183 166 157 173 174 182 182 177 178 167 163 176 179 177 182 183 171 160 192 230
216 253 259 258 220 248 248 268 274 258 260 259 258 253 250 252 243 230 212 215 220 239 239 220 204 195 206 197 187 187 168 165 191 185 185 188 191 189 176 175 186 175 179 186 188 168 166 190 246
248 259 265 259 244 266 261 265 268 262 256 258 257 251 246 245 242 236 221 202 228 235 230 229 213 196 197 187 181 183 174 184 219 209 195 190 194 202 191 185 187 179 177 187 180 170 177 191 217
283 274 274 283 291 283 267 270 268 263 258 253 250 246 237 241 243 229 214 190 241 247 222 221 218 203 191 193 186 192 199 193 206 218 204 200 201 212 205 195 190 187 186 190 185 176 181 198 209
269 273 278 288 300 292 277 275 266 255 244 238 242 247 236 239 246 242 227 204 229 251 224 212 218 206 205 202 192 195 194 205 209 209 214 206 205 214 214 197 189 190 190 188 187 178 193 206 175
258 255 273 287 302 270 278 275 246 237 231 234 247 255 240 235 246 246 236 231 241 248 234 226 222 215 212 202 183 177 176 196 215 212 207 212 215 223 213 208 194 193 193 200 198 190 193 199 209
261 276 284 290 299 284 276 284 255 228 223 235 250 257 262 251 253 247 241 232 244 239 233 225 213 218 213 199 196 193 199 212 225 206 204 205 222 234 217 207 201 197 199 203 209 198 199 191 203
265 300 281 276 276 282 250 256 268 226 238 254 257 251 257 251 251 246 248 230 239 231 218 220 223 233 215 201 201 200 209 220 214 198 195 207 221 231 221 212 207 206 208 209 206 205 201 202 204
272 285 270 257 258 265 239 233 274 234 238 252 267 263 262 264 286 264 265 246 237 231 216 213 225 236 227 216 212 209 209 213 201 205 206 212 211 206 211 220 212 215 212 208 210 210 205 206 208
251 277 316 303 245 253 245 239 257 239 241 245 268 281 272 272 297 302 290 273 255 244 238 228 224 236 231 224 223 222 213 214 209 210 210 211 209 211 210 216 213 217 221 213 208 208 210 208 207
235 232 204 246 265 283 268 244 248 226 275 358 348 327 294 301 292 294 287 272 267 258 255 246 242 240 234 227 229 230 224 221 220 217 217 217 214 215 207 208 215 216 215 222 213 210 215 213 211
234 223 255 260 279 277 258 246 259 250 271 302 318 326 313 295 289 294 295 281 271 272 262 254 254 244 235 232 233 230 228 228 226 220 222 224 220 218 208 208 212 216 211 212 211 212 216 214 211
252 243 189 200 256 271 269 253 254 261 295 300 309 324 321 326 321 298 298 300 283 279 284 268 259 249 238 231 236 247 244 235 224 215 222 222 217 213 208 210 211 211 215 212 205 209 214 213 219
207 216 219 231 243 253 283 277 269 222 292 335 338 346 337 332 322 313 313 314 311 300 282 266 255 260 248 234 232 238 243 234 223 217 224 222 217 213 211 210 212 212 213 209 206 212 210 213 222
237 222 199 208 242 239 266 273 3 45 358 351 336 334 330 321 315 317 318 327 325 316 297 287 282 268 258 239 230 234 227 229 227 225 229 224 219 220 217 209 213 220 216 210 209 212 213 213 218
Height
1504 1505 1506 1509 1511 1511 1506 1496 1491 1492 1494 1496 1496 1496 1498 1501 1505 1516 1515 1513 1513 1513 1514 1515 1517 1519 1521 1522 1524 1525 1526 1527 1528 1529 1530 1531 1532 1532 1533 1534 1535 1535 1535 1536 1536 1536 1537 1537 1537
1503 1505 1508 1508 1510 1512 1504 1494 1494 1494 1496 1496 1497 1498 1499 1504 1508 1511 1512 1513 1513 1513 1514 1515 1517 1519 1520 1522 1524 1525 1526 1528 1529 1530 1531 1531 1532 1533 1533 1534 1535 1535 1536 1536 1536 1537 1537 1537 1538
1503 1505 1508 1506 1505 1504 1499 1493 1494 1495 1496 1497 1498 1500 1502 1507 1509 1510 1512 1512 1513 1513 1514 1515 1517 1519 1520 1522 1524 1525 1526 1528 1529 1530 1531 1532 1533 1533 1534 1534 1535 1536 1536 1537 1537 1537 1537 1538 1538
1504 1506 1506 1506 1503 1496 1495 1495 1494 1496 1497 1498 1500 1502 1505 1509 1510 1510 1511 1512 1513 1513 1514 1515 1517 1518 1520 1522 1523 1525 1526 1528 1529 1530 1531 1532 1533 1533 1534 1535 1535 1536 1536 1537 1537 1537 1538 1538 1538
1504 1505 1505 1505 1499 1495 1494 1494 1495 1496 1498 1499 1500 1503 1506 1509 1509 1510 1511 1512 1513 1513 1514 1515 1517 1518 1520 1521 1523 1524 1526 1527 1528 1529 1530 1531 1532 1533 1534 1535 1535 1536 1536 1537 1537 1537 1538 1538 1539
1505 1502 1505 1503 1496 1494 1494 1495 1496 1497 1498 1500 1501 1503 1507 1508 1508 1509 1511 1512 1513 1513 1513 1515 1516 1518 1519 1521 1522 1523 1525 1526 1527 1528 1530 1531 1532 1533 1534 1534 1535 1535 1536 1536 1537 1537 1538 1538 1539
1504 1502 1501 1497 1496 1495 1495 1497 1498 1498 1499 1501 1502 1504 1506 1507 1508 1508 1510 1511 1512 1512 1513 1514 1516 1517 1518 1520 1521 1523 1524 1525 1526 1527 1529 1530 1531 1532 1533 1534 1534 1535 1535 1536 1536 1537 1537 1538 1538
1502 1502 1499 1497 1496 1496 1497 1498 1499 1500 1500 1502 1503 1504 1506 1506 1507 1508 1509 1510 1511 1512 1512 1513 1514 1516 1517 1518 1520 1521 1523 1524 1525 1526 1527 1529 1530 1531 1532 1533 1534 1534 1535 1535 1536 1536 1537 1537 1538
1503 1506 1502 1497 1497 1498 1498 1499 1501 1501 1501 1502 1503 1504 1505 1505 1506 1507 1508 1509 1510 1511 1511 1512 1513 1514 1516 1517 1518 1520 1521 1522 1524 1525 1526 1527 1528 1529 1530 1531 1532 1533 1534 1534 1535 1535 1536 1537 1537
1503 1505 1501 1499 1498 1499 1500 1501 1502 1502 1501 1502 1503 1503 1503 1503 1505 1506 1506 1507 1508 1509 1510 1511 1512 1513 1514 1515 1516 1518 1519 1520 1522 1523 1524 1526 1527 1528 1529 1530 1531 1532 1532 1533 1534 1535 1535 1536 1536
1502 1503 1501 1500 1500 1501 1501 1502 1502 1502 1501 1502 1503 1503 1502 1503 1503 1505 1506 1506 1507 1507 1508 1509 1511 1511 1512 1513 1514 1516 1517 1518 1520 1521 1522 1524 1525 1526 1527 1528 1529 1530 1531 1532 1532 1533 1534 1535 1535
1502 1502 1502 1502 1503 1502 1502 1502 1502 1501 1501 1501 1502 1502 1501 1502 1502 1503 1504 1505 1505 1505 1506 1507 1508 1509 1510 1511 1512 1513 1515 1516 1517 1519 1520 1522 1523 1524 1525 1526 1527 1528 1529 1530 1531 1531 1532 1533 1534
1502 1502 1502 1503 1503 1503 1502 1501 1501 1499 1500 1500 1500 1500 1500 1500 1501 1502 1502 1503 1503 1503 1504 1504 1505 1507 1508 1509 1510 1511 1512 1513 1515 1516 1518 1519 1521 1522 1523 1524 1525 1526 1527 1528 1529 1530 1530 1531 1532
1501 1501 1501 1502 1502 1502 1501 1499 1500 1496 1498 1498 1497 1497 1497 1498 1498 1499 1499 1500 1500 1500 1501 1502 1502 1504 1505 1506 1507 1509 1510 1511 1512 1514 1515 1517 1518 1519 1521 1522 1523 1523 1524 1526 1527 1528 1528 1529 1530
1502 1502 1500 1499 1499 1499 1500 1498 1495 1494 1495 1495 1494 1494 1494 1495 1495 1495 1496 1497 1497 1498 1498 1499 1499 1501 1502 1503 1504 1505 1507 1508 1509 1511 1513 1514 1515 1517 1518 1519 1520 1521 1522 1523 1524 1526 1526 1527 1528
1500 1500 1500 1496 1497 1498 1502 1497 1491 1492 1493 1492 1492 1491 1491 1491 1492 1493 1493 1494 1494 1495 1495 1496 1497 1497 1499 1499 1500 1502 1504 1505 1506 1508 1509 1511 1512 1514 1515 1516 1517 1518 1519 1520 1521 1523 1523 1524 1525
1500 1501 1499 1497 1495 1496 1497 1493 1489 1489 1490 1489 1489 1488 1488 1488 1489 1490 1490 1491 1491 1492 1492 1492 1493 1494 1495 1496 1497 1499 1500 1501 1503 1504 1506 1508 1509 1511 1512 1513 1514 1515 1517 1518 1518 1519 1520 1521 1521
1502 1500 1497 1496 1494 1495 1494 1490 1487 1487 1487 1486 1485 1485 1485 1486 1486 1487 1487 1488 1488 1489 1489 1489 1489 1490 1492 1493 1494 1495 1496 1498 1499 1501 1502 1504 1506 1507 1509 1510 1511 1512 1513 1514 1515 1516 1517 1518 1518
1500 1499 1497 1495 1493 1493 1491 1487 1483 1483 1483 1482 1481 1482 1482 1483 1484 1485 1485 1484 1484 1485 1485 1485 1486 1486 1487 1488 1489 1491 1492 1494 1495 1497 1499 1500 1502 1503 1505 1506 1507 1508 1509 1511 1512 1513 1514 1514 1515
1500 1500 1497 1494 1492 1492 1489 1484 1479 1478 1478 1478 1478 1479 1479 1480 1481 1481 1481 1480 1480 1481 1481 1481 1482 1483 1484 1484 1485 1487 1489 1490 1492 1494 1495 1496 1498 1500 1501 1502 1503 1505 1506 1507 1508 1509 1510 1511 1512
1498 1499 1498 1497 1494 1491 1490 1483 1477 1474 1474 1475 1476 1476 1477 1477 1477 1477 1477 1477 1477 1477 1477 1477 1478 1479 1480 1481 1482 1484 1485 1486 1487 1489 1490 1492 1494 1495 1497 1497 1498 1501 1502 1503 1504 1505 1506 1507 1508
1498 1495 1496 1496 1499 1496 1492 1493 1477 1472 1472 1473 1473 1474 1474 1474 1474 1474 1474 1474 1474 1474 1474 1474 1474 1475 1476 1477 1478 1479 1479 1481 1482 1484 1486 1488 1490 1491 1492 1493 1495 1496 1498 1499 1500 1501 1502 1503 1504
1497 1495 1496 1496 1497 1499 1491 1493 1479 1470 1471 1470 1470 1471 1471 1472 1472 1471 1471 1470 1471 1471 1471 1471 1471 1472 1472 1473 1474 1474 1476 1477 1479 1480 1481 1483 1484 1486 1487 1489 1490 1492 1493 1495 1496 1497 1498 1499 1499
1496 1496 1494 1494 1497 1500 1488 1489 1478 1472 1468 1467 1467 1467 1468 1469 1469 1468 1468 1467 1467 1467 1467 1467 1467 1468 1468 1469 1469 1470 1470 1472 1474 1475 1477 1478 1479 1481 1482 1484 1486 1487 1488 1490 1491 1493 1493 1494 1495
1497 1500 1502 1500 1500 1492 1480 1482 1476 1466 1463 1464 1465 1465 1465 1465 1465 1465 1464 1463 1463 1462 1462 1462 1462 1463 1464 1465 1465 1465 1466 1468 1469 1470 1471 1473 1474 1475 1477 1479 1481 1482 1483 1485 1486 1488 1489 1489 1490
1497 1498 1504 1505 1498 1488 1482 1480 1469 1462 1461 1462 1463 1463 1463 1462 1462 1462 1461 1460 1459 1458 1458 1458 1457 1458 1459 1460 1460 1461 1462 1463 1465 1466 1467 1468 1469 1471 1472 1474 1476 1477 1479 1480 1481 1482 1484 1485 1485
1495 1497 1496 1501 1499 1498 1483 1470 1465 1460 1460 1460 1460 1460 1460 1459 1459 1458 1457 1456 1455 1454 1454 1454 1453 1453 1454 1455 1456 1457 1458 1459 1460 1461 1463 1464 1465 1466 1468 1469 1471 1472 1474 1475 1476 1477 1479 1480 1480
1494 1494 1499 1501 1501 1495 1477 1468 1467 1462 1461 1459 1459 1458 1458 1457 1456 1455 1453 1452 1451 1450 1450 1450 1450 1449 1450 1451 1451 1452 1454 1455 1456 1457 1458 1459 1460 1461 1462 1464 1465 1467 1468 1469 1471 1472 1473 1475 1475
1495 1496 1496 1497 1496 1495 1487 1474 1459 1461 1460 1460 1459 1458 1457 1455 1454 1452 1450 1449 1448 1447 1447 1446 1446 1447 1447 1447 1448 1449 1450 1451 1451 1452 1453 1454 1455 1456 1457 1458 1460 1461 1463 1464 1465 1466 1468 1469 1470
1491 1491 1494 1501 1498 1493 1492 1477 1458 1458 1458 1458 1457 1456 1456 1454 1452 1450 1448 1447 1445 1444 1443 1442 1442 1443 1443 1444 1444 1444 1445 1446 1446 1447 1448 1449 1450 1451 1452 1453 1454 1456 1457 1458 1459 1460 1461 1463 1465